HARMAJA Weather Reports


Display with metric or nautical units.
time (UTC)temp
F
wind
direction
speed
MPH
gust
MPH
rain 1hr
in
rain 24hr
in
rain mn
in
humidity
%
barometer
mb
20260503210708 44 243 9.0 10.0 0.00 0.00 0.00 91 1007.3
20260503204708 43 240 9.0 10.0 0.00 0.00 0.00 92 1007.4
20260503202708 43 236 11.0 12.0 0.00 0.00 0.00 91 1007.5
20260503200708 44 234 10.0 11.0 0.00 0.00 0.00 90 1007.5
20260503194708 44 247 9.0 10.0 0.00 0.00 0.00 89 1007.6
20260503192708 44 240 11.0 12.0 0.00 0.00 0.00 89 1007.7
20260503190708 45 255 12.0 14.0 0.00 0.00 0.00 88 1007.6
20260503184708 45 244 15.0 16.0 0.00 0.00 0.00 87 1007.5
20260503182707 45 241 15.0 16.0 0.00 0.00 0.00 87 1007.6
20260503180707 45 235 16.0 16.0 0.00 0.00 0.00 87 1007.4
20260503174708 44 236 16.0 17.0 0.00 0.00 0.00 89 1007.5
20260503172714 44 239 15.0 17.0 0.00 0.00 0.00 89 1007.5
20260503170707 44 245 16.0 19.0 0.00 0.00 0.00 88 1007.6
20260503150707 45 231 18.0 20.0 0.00 0.00 0.00 85 1007.8
20260503130706 45 217 20.0 23.0 0.00 0.00 0.00 85 1008.1
20260503110706 46 210 14.0 17.0 0.00 0.00 0.00 80 1008.2
20260503080706 44 229 11.0 12.0 0.00 0.00 0.00 88 1007.5
20260503072705 43 236 11.0 12.0 0.00 0.00 0.00 92 1007.4
20260503070705 42 233 13.0 15.0 0.00 0.00 0.00 94 1007.3
20260503054705 43 267 7.0 9.0 0.00 0.00 0.00 90 1006.2
20260503052706 43 256 9.0 10.0 0.00 0.00 0.00 92 1006.1
20260503050705 42 258 9.0 10.0 0.00 0.00 0.00 93 1006.0
20260503044705 42 251 11.0 13.0 0.00 0.00 0.00 94 1005.9
20260503042705 42 237 10.0 12.0 0.00 0.00 0.00 93 1005.8
20260503040705 42 244 14.0 15.0 0.00 0.00 0.00 93 1005.9
20260503034705 42 235 13.0 14.0 0.00 0.00 0.00 93 1005.4
20260503032705 42 246 15.0 17.0 0.00 0.00 0.00 92 1005.7
20260503030705 42 242 15.0 17.0 0.00 0.00 0.00 92 1005.8
20260503024705 42 236 17.0 20.0 0.00 0.00 0.00 92 1005.7
20260503022704 42 237 17.0 19.0 0.00 0.00 0.00 91 1005.6
20260503020704 42 249 15.0 18.0 0.00 0.00 0.00 91 1005.7
20260503014705 42 242 17.0 20.0 0.00 0.00 0.00 90 1005.8
20260503012705 42 223 16.0 19.0 0.00 0.00 0.00 89 1005.5
20260503010705 42 230 16.0 17.0 0.00 0.00 0.00 90 1005.8
20260503004704 42 233 14.0 18.0 0.00 0.00 0.00 89 1006.1
20260503002704 42 244 13.0 15.0 0.00 0.00 0.00 89 1006.5
20260503000704 43 227 18.0 21.0 0.00 0.00 0.00 87 1006.4
20260502234704 43 229 16.0 17.0 0.00 0.00 0.00 87 1006.6
20260502232704 42 221 13.0 15.0 0.00 0.00 0.00 89 1006.8
20260502230704 42 205 10.0 12.0 0.00 0.00 0.00 91 1007.1
20260502224704 42 216 13.0 14.0 0.00 0.00 0.00 90 1007.1
20260502222705 43 227 14.0 15.0 0.00 0.00 0.00 87 1007.4
20260502220704 43 228 13.0 15.0 0.00 0.00 0.00 87 1007.6
20260502214704 43 239 15.0 17.0 0.00 0.00 0.00 84 1007.7
20260502212704 45 231 18.0 20.0 0.00 0.00 0.00 81 1007.9